This demonstration page uses our WeatherBlox Daily Observations layout. Learn more.

Left ArrowRight Arrow

Hourly Observations for December 5, 2020

Temp ( °F °C ) Dew Point ( °F °C ) Humidity (%) Winds ( mph kmh ) Pressure ( in mb ) Visibility ( mi km ) Precip ( " mm )
12:52 am 00:52 Clear 27 -2.8 24 -4.4 89 89 WNW 5 7 30.12 1020 10 16 0.00 0.00
1:52 am 01:52 Clear 25 -3.9 22 -5.6 88 88 N 6 9 30.13 1020 10 16 0.00 0.00
2:52 am 02:52 Clear 25 -3.9 23 -5 92 92 NNW 7 11 30.14 1021 10 16 0.00 0.00
3:52 am 03:52 Clear 23 -5 22 -5.6 96 96 N 6 9 30.16 1022 10 16 0.00 0.00
4:52 am 04:52 Clear 22 -5.6 21 -6.1 96 96 NNW 6 9 30.17 1022 10 16 0.00 0.00
5:52 am 05:52 Clear 25 -3.9 22 -5.6 88 88 N 5 7 30.19 1022 10 16 0.00 0.00
6:52 am 06:52 Clear 26 -3.3 22 -5.6 84 84 NNW 3 6 30.19 1023 10 16 0.00 0.00
7:52 am 07:52 Mostly Sunny 24 -4.4 21 -6.1 88 88 N 5 7 30.23 1024 10 16 0.00 0.00
8:52 am 08:52 Mostly Sunny 31 -0.6 26 -3.3 82 82 N 7 11 30.23 1024 10 16 0.00 0.00
9:52 am 09:52 Mostly Sunny 34 1.1 27 -2.8 76 76 NNW 18 30 30.25 1024 10 16 0.00 0.00
10:52 am 10:52 Mostly Cloudy 37 2.8 27 -2.8 67 67 NNW 10 17 30.24 1024 10 16 0.00 0.00
11:52 am 11:52 Mostly Cloudy 41 5 29 -1.7 62 62 NNW 13 20 30.22 1024 10 16 0.00 0.00
12:52 pm 12:52 Partly Cloudy 45 7.2 30 -1.1 56 56 NNW 12 19 30.20 1023 10 16 0.00 0.00
1:52 pm 13:52 Mostly Sunny 48 8.9 30 -1.1 50 50 NNW 12 19 30.17 1022 10 16 0.00 0.00
2:52 pm 14:52 Sunny 48 8.9 30 -1.1 50 50 NNW 12 19 30.17 1022 10 16 0.00 0.00
3:52 pm 15:52 Sunny 47 8.3 29 -1.7 50 50 NNW 10 17 30.17 1022 10 16 0.00 0.00
4:52 pm 16:52 Sunny 42 5.6 29 -1.7 60 60 NNW 5 7 30.17 1022 10 16 0.00 0.00
5:52 pm 17:52 Clear 36 2.2 26 -3.3 67 67 NNW 6 9 30.18 1022 10 16 0.00 0.00
6:52 pm 18:52 Clear 36 2.2 26 -3.3 67 67 W 3 6 30.16 1021 10 16 0.00 0.00
7:52 pm 19:52 Clear 33 0.6 26 -3.3 75 75 Calm 30.17 1022 10 16 0.00 0.00
8:52 pm 20:52 Clear 34 1.1 27 -2.8 76 76 N 3 6 30.15 1021 10 16 0.00 0.00
9:52 pm 21:52 Clear 31 -0.6 25 -3.9 79 79 Calm 30.13 1020 10 16 0.00 0.00
10:52 pm 22:52 Clear 30 -1.1 26 -3.3 85 85 NNE 3 6 30.13 1020 10 16 0.00 0.00
11:52 pm 23:52 Mostly Clear 34 1.1 27 -2.8 76 76 N 6 9 30.13 1020 10 16 0.00 0.00

Powered by AerisWeather